Regional Weather Roundup
Issued by NWS Jackson, KY

Home | Current Version | Previous Version | Graphics & Text | Print | Product List | Glossary On
Versions: 1 2 3 4 5 6 7 8 9 10 11 12 13 14 15 16 17 18 19 20 21 22 23 24 25 26 27 28 29 30 31 32 33 34 35 36 37 38 39 40 41 42 43 44 45 46 47 48 49 50
000
ASUS43 KJKL 220511
RWRJKL

EAST KENTUCKY HOURLY WEATHER ROUNDUP
NATIONAL WEATHER SERVICE JACKSON KY
100 AM EDT FRI AUG 22 2014

NOTE: "FAIR" INDICATES FEW OR NO CLOUDS BELOW 12,000 FEET WITH
NO SIGNIFICANT WEATHER AND/OR OBSTRUCTIONS TO VISIBILITY.

* THESE REPORTS ARE NOT UNDER NWS QUALITY CONTROL AND MAY NOT
  REPORT WEATHER SUCH AS PRECIPITATION AND FOG.

KYZ079-080-083-085-087-088-110-112-115-119-120-220600
...EASTERN KENTUCKY...

CITY           SKY/WX    TMP DP  RH WIND       PRES   REMARKS
JACKSON        MOCLDY    71  68  90 CALM      30.11S
LONDON         PTCLDY    75  70  84 S3        30.12R
SOMERSET*      CLOUDY    72  72 100 CALM      30.11S
MONTICELLO*    PTCLDY    74  72  93 CALM      30.11S
MIDDLESBORO*   CLEAR     71  70  98 CALM      30.13S
HARLAN APT*    CLOUDY    68  68 100 MISG      30.16R
HAZARD APT*    CLEAR     72  72 100 CALM      30.11F
BLACK MTN*       N/A     68  66  94 S6          N/A
PIKEVILLE APT* CLEAR     68  68 100 CALM      30.11S
BIG SANDY*     MOCLDY    70  69  95 S3        30.10F
MOREHEAD APT*  MOCLDY    72  72 100 CALM      30.10S
$$

KYZ035-036-041-042-044-050-067-078-099-220600
...CENTRAL KENTUCKY...

CITY           SKY/WX    TMP DP  RH WIND       PRES   REMARKS
MT STERLING*   CLOUDY    73  73 100 SW5       30.09S
FLEMING/MASON* CLEAR     72  72 100 S7        30.08R
DANVILLE*      MOCLDY    75  72  88 SW5       30.09S
RICHMOND*      MOCLDY    77  70  78 S3        30.08S
LEXINGTON      CLOUDY    78  72  81 S7        30.08R
FRANKFORT      CLOUDY    75  71  87 SW5       30.05S
$$

KYZ091>093-OHZ055-061-077-WVZ005-015-034-035-042-220600
...SOUTHERN OHIO/WEST VIRGINIA...

CITY           SKY/WX    TMP DP  RH WIND       PRES   REMARKS
COVINGTON      HVY RAIN  73  68  83 N18G26    30.07R
COLUMBUS       TSTM      73  70  88 N8        30.02S FOG
DAYTON         TSTM      70  68  93 W16       30.03F
WILMINGTON     TSTM      71  66  84 W16G24    30.06R
HUNTINGTON     PTCLDY    70  69  97 S3        30.06F
CHARLESTON     CLOUDY    70  70 100 CALM      30.07S FOG
PINEVILLE*     FOG       68  68 100 MISG      30.19F VSB 1/2
BECKLEY        PTCLDY    66  63  90 SW7       30.16S
BLUEFIELD      CLEAR     67  62  84 W6        30.20R
$$

VAZ002-007-008-TNZ017-027-036-066-071-220600
...SOUTHWEST VIRGINIA/EAST TENNESSEE...

CITY           SKY/WX    TMP DP  RH WIND       PRES   REMARKS
WISE*          MOCLDY    68  68 100 SW6       30.21S
JONESVILLE*      N/A     68  68 100 CALM      30.17R
ABINGDON*      PTCLDY    69  69 100 CALM      30.18S
BRISTOL        MOCLDY    72  70  93 CALM      30.15R FOG
KNOXVILLE      PTCLDY    76  70  82 CALM      30.12R
OAK RIDGE      CLEAR     76  73  91 CALM      30.14R
CROSSVILLE     CLEAR     74  68  81 CALM      30.19R
NASHVILLE      CLEAR     78  73  84 CALM      30.09S
$$

...KEY TO REMARKS...
VSB - VISIBILITY IN MILES
WCI - WIND CHILL INDEX
HX  - HEAT INDEX

$$


USA.gov is the U.S. government's official web portal to all federal, state and local government web resources and services.